{"data":{"norad_id":54015,"epoch":"2026-09-20T11:57:11.854368Z","epoch_age_seconds":86614,"freshness":"FRESH","line1":"1 54015U 22125BD  26263.49805387  .08251091  12438-4  45620-3 0  9998","line2":"2 54015  53.2005  15.8216 0004916 291.2485  68.8039 16.42165872219486","mean_motion":16.42165872,"eccentricity":0.0004916,"inclination_deg":53.2005,"raan_deg":15.8216,"arg_perigee_deg":291.2485,"mean_anomaly_deg":68.8039,"bstar":0.0004562,"rev_number":21948,"period_min":87.689071156144,"perigee_km":156.83314975685,"apogee_km":163.26149258142,"semimajor_km":6538.1843211691,"source":"CELESTRAK","updated_at":"2026-09-21T09:00:33.075298Z"}}